Flag for France Weather past 2 weeks in Rennes, France

Now
75 °F

Broken clouds.


Feels Like: 78 °F
Forecast: 59 / 73 °F
Wind: 6 mph from North

Location: Rennes Airport

Current Time: Aug 1, 2014 at 2:39:21 PM

Latest Report: Aug 1, 2014 at 2:00 PM


Visibility: N/A

Pressure: 29.80 "Hg

Humidity: 50%

Dew point: 55 °F

Location of RennesLocation

Historic Weather in Rennes — Graph

°F

Rennes temperature yesterday

Maximum temperature yesterday: 77 °F (at 4:00 PM)
Minimum temperature yesterday: 50 °F (at 6:00 AM)
Average temperature yesterday: 64 °F

Past Weeks' High & Low Weather Summary

 TemperatureHumidityPressure
High91 °F (Jul 17, 3:30 PM)100% (Jul 21, 3:00 AM)30.21 "Hg (Jul 21, 3:00 AM)
Low50 °F (Jul 31, 6:00 AM)33% (Jul 17, 5:30 PM)29.71 "Hg (Jul 19, 5:30 AM)
Average69 °F75%29.98 "Hg
* Reported Jul 17 1:00 PM — Aug 1 1:30 PM, Rennes, Weather by CustomWeather, © 2014

Note: Actual official high and low records may vary slightly from our data, if they occured in-between our weather recording intervals... More about our weather records

Advertising

Rennes weather history for previous 24 hours

 ConditionsComfort  
Time TempWeatherWind HumidityBarometerVisibility
1:30 PM
Aug 1
75 °FPassing clouds.5 mph54%29.80 "HgN/A
1:00 PM73 °FPassing clouds.3 mph57%29.80 "HgN/A
12:30 PM72 °FBroken clouds.5 mph61%29.83 "HgN/A
12:00 PM72 °FClear.5 mph61%29.83 "HgN/A
11:30 AM72 °FPartly sunny.3 mph57%29.83 "HgN/A
11:00 AM70 °FPartly sunny.3 mph64%29.83 "HgN/A
10:30 AM68 °FOvercast.3 mph69%29.86 "HgN/A
10:00 AM66 °FOvercast.3 mph73%29.86 "HgN/A
9:30 AM63 °FClear.2 mph83%29.86 "HgN/A
9:00 AM61 °FClear.2 mph88%29.86 "HgN/A
8:30 AM59 °FClear.3 mph94%29.86 "Hg6 mi
8:00 AM55 °FFog.2 mph100%29.89 "Hg3 mi
7:30 AM55 °FFog.3 mph94%29.89 "Hg3 mi
7:00 AM54 °FClear.2 mph100%29.89 "Hg4 mi
6:30 AM55 °FFog.3 mph94%29.89 "Hg3 mi
6:00 AM54 °FFog.3 mph100%29.89 "Hg3 mi
5:30 AM54 °FFog.5 mph94%29.89 "Hg2 mi
4:30 AM54 °FClear.3 mph100%29.92 "Hg4 mi
4:00 AM55 °FClear.2 mph94%29.92 "HgN/A
3:30 AM55 °FClear.2 mph94%29.92 "HgN/A
3:00 AM57 °FClear.3 mph88%29.92 "HgN/A
2:30 AM57 °FClear.3 mph88%29.92 "HgN/A
2:00 AM59 °FClear.2 mph82%29.95 "HgN/A
1:30 AM59 °FClear.3 mph82%29.95 "HgN/A
1:00 AM61 °FClear.3 mph83%29.95 "HgN/A
12:30 AM61 °FClear.5 mph77%29.95 "HgN/A
12:00 AM61 °FClear.5 mph77%29.95 "HgN/A
11:30 PM
Jul 31
61 °FClear.3 mph77%29.95 "HgN/A
11:00 PM63 °FClear.5 mph73%29.95 "HgN/A
10:30 PM64 °FClear.7 mph68%29.95 "HgN/A
10:00 PM66 °FClear.6 mph64%29.95 "HgN/A
9:30 PM66 °FClear.8 mph64%29.95 "HgN/A
9:00 PM68 °FClear.7 mph64%29.95 "HgN/A
8:30 PM70 °FClear.9 mph60%29.95 "HgN/A
8:00 PM72 °FClear.9 mph57%29.95 "HgN/A
7:30 PM72 °FClear.10 mph61%29.95 "HgN/A
7:00 PM72 °FClear.13 mph61%29.95 "HgN/A
6:30 PM73 °FClear.10 mph57%29.95 "HgN/A
6:00 PM73 °FClear.6 mph57%29.95 "HgN/A
5:30 PM75 °FClear.5 mph50%29.98 "HgN/A
5:00 PM77 °FClear.3 mph47%29.98 "HgN/A
4:30 PM77 °FClear.7 mph47%29.98 "HgN/A
4:00 PM77 °FPassing clouds.2 mph44%29.98 "HgN/A
3:30 PM75 °FClear.3 mph47%29.98 "HgN/A
3:00 PM75 °FClear.6 mph50%29.98 "HgN/A
2:30 PM75 °FScattered clouds.3 mph50%30.01 "HgN/A
2:00 PM73 °FClear.2 mph53%30.01 "HgN/A
Weather by CustomWeather, © 2014

See weather overviewHow to use our weather pages